Starlink 30514

operational
NORAD ID: 58028 Int'l Des: 2023-156 Owner: SPXS Country: US Constellation: starlink
LEOCIRCULAR

Über Starlink 30514

Beschreibung wird geladen...

Live-Position

3D-Globus wird geladen...

Nächste Überflüge

Höhenverlauf

Altitude vs Time

uPlot chart will show altitude changes over time

Zweizeiliger Elementsatz

1 58028U 23156A 26033.97334399 .00000056 00000-0 14032-4 0 9996
2 58028 53.1578 239.4237 0001320 81.6375 278.4775 15.30192952131002
Epoch: 2. Feb. 2026 • Age: 32 hours

Aktueller Status

Höhe 491.1 km
Geschwindigkeit 7.62 km/s
Subsatellitenpunkt -44.63°S, 150.39°W
Startdatum 9. Okt. 2023
Alter 2.3 years
Typ internet

Technische Details

Klassifizierung Payload
Masse 730.00 kg
Trockenmasse 700.00 kg
Gesamtmasse 730.00 kg
Länge 0.30 m
Durchmesser 4.10 m
Spannweite 29.00 m
Form Box + pan
Hersteller SPXS
Bus-Typ Starlink V2M
Phasenstatus In Orbit
Besitzer/Staat SPXS/US

Große Konstellationen

Loading constellations...